owner,sensor,date,latitude,longitude,vertical_datum,wind_speed,wind_to_direction,wind_speed_of_gust,qcFlag 
TCOON,ioos:station:TCOON:013:1,2015-07-01T00:12:00Z,27.4847,-97.3181,0.0,3.0,143.0,4.2,'1111122,1111122,1111122' 
TCOON,ioos:station:TCOON:013:1,2015-07-01T01:12:00Z,27.4847,-97.3181,0.0,1.7,121.0,2.1,'1111122,1111122,1111122' 
TCOON,ioos:station:TCOON:013:1,2015-07-01T02:12:00Z,27.4847,-97.3181,0.0,3.5,100.0,4.0,'1111122,1111122,1111122' 
TCOON,ioos:station:TCOON:013:1,2015-07-01T03:12:00Z,27.4847,-97.3181,0.0,2.8,131.0,3.4,'1111122,1111122,1111122' 
TCOON,ioos:station:TCOON:013:1,2015-07-01T04:12:00Z,27.4847,-97.3181,0.0,2.8,120.0,3.5,'1111122,1111122,1111122' 
TCOON,ioos:station:TCOON:013:1,2015-07-01T05:12:00Z,27.4847,-97.3181,0.0,2.5,118.0,3.2,'1111122,1111122,1111122' 
TCOON,ioos:station:TCOON:013:1,2015-07-01T06:18:00Z,27.4847,-97.3181,0.0,3.1,69.0,4.1,'1111122,1111122,1111122' 
TCOON,ioos:station:TCOON:013:1,2015-07-01T07:30:00Z,27.4847,-97.3181,0.0,3.9,136.0,4.9,'1111122,1111122,1111122' 
TCOON,ioos:station:TCOON:013:1,2015-07-01T08:18:00Z,27.4847,-97.3181,0.0,4.2,152.0,4.9,'1111122,1111122,1111122' 
TCOON,ioos:station:TCOON:013:1,2015-07-01T09:12:00Z,27.4847,-97.3181,0.0,2.5,121.0,3.7,'1111122,1111122,1111122' 
TCOON,ioos:station:TCOON:013:1,2015-07-01T10:12:00Z,27.4847,-97.3181,0.0,6.9,123.0,8.3,'1111122,1111122,1111122' 
TCOON,ioos:station:TCOON:013:1,2015-07-01T11:12:00Z,27.4847,-97.3181,0.0,3.8,129.0,5.6,'1111122,1111122,1111122' 
TCOON,ioos:station:TCOON:013:1,2015-07-01T12:12:00Z,27.4847,-97.3181,0.0,2.2,123.0,2.6,'1111122,1111122,1111122' 
TCOON,ioos:station:TCOON:013:1,2015-07-01T13:12:00Z,27.4847,-97.3181,0.0,2.2,105.0,2.9,'1111122,1111122,1111122' 
TCOON,ioos:station:TCOON:013:1,2015-07-01T14:12:00Z,27.4847,-97.3181,0.0,5.2,90.0,6.5,'1111122,1111122,1111122' 
TCOON,ioos:station:TCOON:013:1,2015-07-01T15:18:00Z,27.4847,-97.3181,0.0,11.1,208.0,17.3,'1111122,1111122,1111122' 
TCOON,ioos:station:TCOON:013:1,2015-07-01T16:12:00Z,27.4847,-97.3181,0.0,6.5,196.0,7.7,'1111122,1111122,1111122' 
TCOON,ioos:station:TCOON:013:1,2015-07-01T17:12:00Z,27.4847,-97.3181,0.0,6.3,214.0,7.8,'1111122,1111122,1111122' 
TCOON,ioos:station:TCOON:013:1,2015-07-01T18:18:00Z,27.4847,-97.3181,0.0,5.8,178.0,7.7,'1111122,1111122,1111122' 
TCOON,ioos:station:TCOON:013:1,2015-07-01T19:18:00Z,27.4847,-97.3181,0.0,7.6,185.0,8.5,'1111122,1111122,1111122' 
TCOON,ioos:station:TCOON:013:1,2015-07-01T20:18:00Z,27.4847,-97.3181,0.0,5.4,189.0,6.4,'1111122,1111122,1111122' 
TCOON,ioos:station:TCOON:013:1,2015-07-01T21:12:00Z,27.4847,-97.3181,0.0,7.1,191.0,8.4,'1111122,1111122,1111122' 
TCOON,ioos:station:TCOON:013:1,2015-07-01T22:24:00Z,27.4847,-97.3181,0.0,5.6,184.0,6.5,'1111122,1111122,1111122' 
TCOON,ioos:station:TCOON:013:1,2015-07-01T23:18:00Z,27.4847,-97.3181,0.0,5.2,189.0,5.9,'1111122,1111122,1111122' 
TCOON,ioos:station:TCOON:013:1,2015-07-02T00:12:00Z,27.4847,-97.3181,0.0,4.0,118.0,4.9,'1111122,1111122,1111122' 
TCOON,ioos:station:TCOON:013:1,2015-07-02T01:12:00Z,27.4847,-97.3181,0.0,4.1,157.0,5.0,'1111122,1111122,1111122' 
TCOON,ioos:station:TCOON:013:1,2015-07-02T02:12:00Z,27.4847,-97.3181,0.0,4.3,156.0,5.2,'1111122,1111122,1111122' 
TCOON,ioos:station:TCOON:013:1,2015-07-02T03:12:00Z,27.4847,-97.3181,0.0,4.1,146.0,4.6,'1111122,1111122,1111122' 
TCOON,ioos:station:TCOON:013:1,2015-07-02T04:18:00Z,27.4847,-97.3181,0.0,3.0,133.0,3.7,'1111122,1111122,1111122' 
TCOON,ioos:station:TCOON:013:1,2015-07-02T05:24:00Z,27.4847,-97.3181,0.0,3.0,122.0,3.6,'1111122,1111122,1111122' 
TCOON,ioos:station:TCOON:013:1,2015-07-02T06:24:00Z,27.4847,-97.3181,0.0,1.9,126.0,2.7,'1111122,1111122,1111122' 
TCOON,ioos:station:TCOON:013:1,2015-07-02T07:18:00Z,27.4847,-97.3181,0.0,2.8,116.0,3.4,'1111122,1111122,1111122' 
TCOON,ioos:station:TCOON:013:1,2015-07-02T08:18:00Z,27.4847,-97.3181,0.0,2.5,112.0,3.2,'1111122,1111122,1111122' 
TCOON,ioos:station:TCOON:013:1,2015-07-02T09:18:00Z,27.4847,-97.3181,0.0,2.8,108.0,3.3,'1111122,1111122,1111122' 
TCOON,ioos:station:TCOON:013:1,2015-07-02T10:12:00Z,27.4847,-97.3181,0.0,2.3,99.0,3.1,'1111122,1111122,1111122' 
TCOON,ioos:station:TCOON:013:1,2015-07-02T11:18:00Z,27.4847,-97.3181,0.0,2.6,115.0,3.1,'1111122,1111122,1111122' 
TCOON,ioos:station:TCOON:013:1,2015-07-02T12:18:00Z,27.4847,-97.3181,0.0,3.6,135.0,4.2,'1111122,1111122,1111122' 
TCOON,ioos:station:TCOON:013:1,2015-07-02T13:18:00Z,27.4847,-97.3181,0.0,4.5,135.0,5.7,'1111122,1111122,1111122' 
TCOON,ioos:station:TCOON:013:1,2015-07-02T14:12:00Z,27.4847,-97.3181,0.0,6.2,136.0,7.6,'1111122,1111122,1111122' 
TCOON,ioos:station:TCOON:013:1,2015-07-02T16:12:00Z,27.4847,-97.3181,0.0,6.9,134.0,8.8,'1111122,1111122,1111122' 
TCOON,ioos:station:TCOON:013:1,2015-07-02T17:18:00Z,27.4847,-97.3181,0.0,6.8,138.0,9.2,'1111122,1111122,1111122' 
TCOON,ioos:station:TCOON:013:1,2015-07-02T18:18:00Z,27.4847,-97.3181,0.0,7.4,141.0,10.4,'1111122,1111122,1111122' 
TCOON,ioos:station:TCOON:013:1,2015-07-02T19:18:00Z,27.4847,-97.3181,0.0,7.3,205.0,8.2,'1111122,1111122,1111122' 
TCOON,ioos:station:TCOON:013:1,2015-07-02T20:18:00Z,27.4847,-97.3181,0.0,7.3,162.0,10.0,'1111122,1111122,1111122' 
TCOON,ioos:station:TCOON:013:1,2015-07-02T21:18:00Z,27.4847,-97.3181,0.0,6.8,150.0,8.4,'1111122,1111122,1111122' 
TCOON,ioos:station:TCOON:013:1,2015-07-03T13:12:00Z,27.4847,-97.3181,0.0,3.6,123.0,4.6,'1111122,1111122,1111122' 
TCOON,ioos:station:TCOON:013:1,2015-07-03T14:12:00Z,27.4847,-97.3181,0.0,5.1,143.0,6.3,'1111122,1111122,1111122' 
TCOON,ioos:station:TCOON:013:1,2015-07-03T15:12:00Z,27.4847,-97.3181,0.0,6.2,141.0,7.4,'1111122,1111122,1111122' 
TCOON,ioos:station:TCOON:013:1,2015-07-03T16:18:00Z,27.4847,-97.3181,0.0,5.6,142.0,7.5,'1111122,1111122,1111122' 
TCOON,ioos:station:TCOON:013:1,2015-07-03T17:12:00Z,27.4847,-97.3181,0.0,7.0,136.0,8.2,'1111122,1111122,1111122' 
TCOON,ioos:station:TCOON:013:1,2015-07-03T18:18:00Z,27.4847,-97.3181,0.0,7.1,134.0,9.0,'1111122,1111122,1111122' 
TCOON,ioos:station:TCOON:013:1,2015-07-03T19:18:00Z,27.4847,-97.3181,0.0,6.8,125.0,8.8,'1111122,1111122,1111122' 
TCOON,ioos:station:TCOON:013:1,2015-07-03T20:18:00Z,27.4847,-97.3181,0.0,7.1,128.0,9.3,'1111122,1111122,1111122' 
TCOON,ioos:station:TCOON:013:1,2015-07-03T21:18:00Z,27.4847,-97.3181,0.0,7.7,133.0,9.5,'1111122,1111122,1111122' 
TCOON,ioos:station:TCOON:013:1,2015-07-03T22:18:00Z,27.4847,-97.3181,0.0,5.9,133.0,8.7,'1111122,1111122,1111122' 
TCOON,ioos:station:TCOON:013:1,2015-07-03T23:18:00Z,27.4847,-97.3181,0.0,6.1,139.0,7.9,'1111122,1111122,1111122' 
TCOON,ioos:station:TCOON:013:1,2015-07-04T00:18:00Z,27.4847,-97.3181,0.0,6.4,140.0,8.0,'1111122,1111122,1111122' 
TCOON,ioos:station:TCOON:013:1,2015-07-04T01:12:00Z,27.4847,-97.3181,0.0,5.3,129.0,6.5,'1111122,1111122,1111122' 
TCOON,ioos:station:TCOON:013:1,2015-07-04T02:18:00Z,27.4847,-97.3181,0.0,5.0,145.0,6.6,'1111122,1111122,1111122' 
TCOON,ioos:station:TCOON:013:1,2015-07-04T03:12:00Z,27.4847,-97.3181,0.0,5.4,147.0,6.8,'1111122,1111122,1111122' 
TCOON,ioos:station:TCOON:013:1,2015-07-04T04:12:00Z,27.4847,-97.3181,0.0,5.9,151.0,7.5,'1111122,1111122,1111122' 
TCOON,ioos:station:TCOON:013:1,2015-07-04T05:12:00Z,27.4847,-97.3181,0.0,5.7,147.0,7.1,'1111122,1111122,1111122' 
TCOON,ioos:station:TCOON:013:1,2015-07-04T06:18:00Z,27.4847,-97.3181,0.0,5.5,155.0,6.3,'1111122,1111122,1111122' 
TCOON,ioos:station:TCOON:013:1,2015-07-04T07:30:00Z,27.4847,-97.3181,0.0,5.1,136.0,6.5,'1111122,1111122,1111122' 
TCOON,ioos:station:TCOON:013:1,2015-07-04T08:12:00Z,27.4847,-97.3181,0.0,5.1,148.0,6.2,'1111122,1111122,1111122' 
TCOON,ioos:station:TCOON:013:1,2015-07-04T09:12:00Z,27.4847,-97.3181,0.0,5.1,146.0,6.0,'1111122,1111122,1111122' 
TCOON,ioos:station:TCOON:013:1,2015-07-04T10:12:00Z,27.4847,-97.3181,0.0,5.0,140.0,6.6,'1111122,1111122,1111122' 
TCOON,ioos:station:TCOON:013:1,2015-07-04T11:12:00Z,27.4847,-97.3181,0.0,5.0,158.0,6.2,'1111122,1111122,1111122' 
TCOON,ioos:station:TCOON:013:1,2015-07-04T12:12:00Z,27.4847,-97.3181,0.0,4.6,159.0,5.9,'1111122,1111122,1111122' 
TCOON,ioos:station:TCOON:013:1,2015-07-04T13:12:00Z,27.4847,-97.3181,0.0,5.0,162.0,6.1,'1111122,1111122,1111122' 
TCOON,ioos:station:TCOON:013:1,2015-07-04T14:12:00Z,27.4847,-97.3181,0.0,5.8,153.0,6.8,'1111122,1111122,1111122' 
TCOON,ioos:station:TCOON:013:1,2015-07-04T15:12:00Z,27.4847,-97.3181,0.0,6.5,139.0,8.3,'1111122,1111122,1111122' 
TCOON,ioos:station:TCOON:013:1,2015-07-04T16:18:00Z,27.4847,-97.3181,0.0,6.9,140.0,9.4,'1111122,1111122,1111122' 
TCOON,ioos:station:TCOON:013:1,2015-07-04T17:18:00Z,27.4847,-97.3181,0.0,8.4,137.0,10.8,'1111122,1111122,1111122' 
TCOON,ioos:station:TCOON:013:1,2015-07-04T18:12:00Z,27.4847,-97.3181,0.0,8.6,141.0,11.3,'1111122,1111122,1111122' 
TCOON,ioos:station:TCOON:013:1,2015-07-04T19:12:00Z,27.4847,-97.3181,0.0,8.5,132.0,10.5,'1111122,1111122,1111122' 
TCOON,ioos:station:TCOON:013:1,2015-07-04T20:18:00Z,27.4847,-97.3181,0.0,8.2,128.0,10.2,'1111122,1111122,1111122' 
TCOON,ioos:station:TCOON:013:1,2015-07-04T21:18:00Z,27.4847,-97.3181,0.0,7.6,136.0,10.0,'1111122,1111122,1111122' 
TCOON,ioos:station:TCOON:013:1,2015-07-04T22:18:00Z,27.4847,-97.3181,0.0,7.2,124.0,9.2,'1111122,1111122,1111122' 
TCOON,ioos:station:TCOON:013:1,2015-07-04T23:18:00Z,27.4847,-97.3181,0.0,7.5,123.0,9.5,'1111122,1111122,1111122' 
TCOON,ioos:station:TCOON:013:1,2015-07-05T00:24:00Z,27.4847,-97.3181,0.0,7.3,127.0,9.2,'1111122,1111122,1111122' 
TCOON,ioos:station:TCOON:013:1,2015-07-05T01:12:00Z,27.4847,-97.3181,0.0,7.3,133.0,8.4,'1111122,1111122,1111122' 
TCOON,ioos:station:TCOON:013:1,2015-07-05T02:12:00Z,27.4847,-97.3181,0.0,6.8,134.0,9.0,'1111122,1111122,1111122' 
TCOON,ioos:station:TCOON:013:1,2015-07-05T03:12:00Z,27.4847,-97.3181,0.0,5.6,135.0,6.9,'1111122,1111122,1111122' 
TCOON,ioos:station:TCOON:013:1,2015-07-05T04:18:00Z,27.4847,-97.3181,0.0,4.8,131.0,5.7,'1111122,1111122,1111122' 
TCOON,ioos:station:TCOON:013:1,2015-07-05T05:12:00Z,27.4847,-97.3181,0.0,5.1,146.0,6.1,'1111122,1111122,1111122' 
TCOON,ioos:station:TCOON:013:1,2015-07-05T06:18:00Z,27.4847,-97.3181,0.0,5.0,145.0,5.8,'1111122,1111122,1111122' 
TCOON,ioos:station:TCOON:013:1,2015-07-05T07:18:00Z,27.4847,-97.3181,0.0,4.8,144.0,5.7,'1111122,1111122,1111122' 
TCOON,ioos:station:TCOON:013:1,2015-07-05T08:18:00Z,27.4847,-97.3181,0.0,5.0,136.0,6.3,'1111122,1111122,1111122' 
TCOON,ioos:station:TCOON:013:1,2015-07-05T09:12:00Z,27.4847,-97.3181,0.0,5.1,134.0,6.1,'1111122,1111122,1111122' 
TCOON,ioos:station:TCOON:013:1,2015-07-05T10:12:00Z,27.4847,-97.3181,0.0,5.0,138.0,6.2,'1111122,1111122,1111122' 
TCOON,ioos:station:TCOON:013:1,2015-07-05T11:12:00Z,27.4847,-97.3181,0.0,5.8,140.0,6.9,'1111122,1111122,1111122' 
TCOON,ioos:station:TCOON:013:1,2015-07-05T12:12:00Z,27.4847,-97.3181,0.0,5.1,141.0,6.1,'1111122,1111122,1111122' 
TCOON,ioos:station:TCOON:013:1,2015-07-05T13:12:00Z,27.4847,-97.3181,0.0,5.6,145.0,7.5,'1111122,1111122,1111122' 
TCOON,ioos:station:TCOON:013:1,2015-07-05T14:12:00Z,27.4847,-97.3181,0.0,6.8,148.0,8.4,'1111122,1111122,1111122' 
TCOON,ioos:station:TCOON:013:1,2015-07-05T15:12:00Z,27.4847,-97.3181,0.0,8.0,152.0,9.9,'1111122,1111122,1111122' 
TCOON,ioos:station:TCOON:013:1,2015-07-05T16:12:00Z,27.4847,-97.3181,0.0,8.1,137.0,10.2,'1111122,1111122,1111122' 
TCOON,ioos:station:TCOON:013:1,2015-07-05T17:12:00Z,27.4847,-97.3181,0.0,8.0,147.0,10.0,'1111122,1111122,1111122' 
TCOON,ioos:station:TCOON:013:1,2015-07-05T18:12:00Z,27.4847,-97.3181,0.0,8.7,143.0,12.3,'1111122,1111122,1111122' 
TCOON,ioos:station:TCOON:013:1,2015-07-05T19:12:00Z,27.4847,-97.3181,0.0,9.4,142.0,11.8,'1111122,1111122,1111122' 
TCOON,ioos:station:TCOON:013:1,2015-07-05T20:18:00Z,27.4847,-97.3181,0.0,9.1,135.0,11.2,'1111122,1111122,1111122' 
TCOON,ioos:station:TCOON:013:1,2015-07-05T21:12:00Z,27.4847,-97.3181,0.0,8.2,135.0,9.6,'1111122,1111122,1111122' 
TCOON,ioos:station:TCOON:013:1,2015-07-05T22:18:00Z,27.4847,-97.3181,0.0,8.9,136.0,11.9,'1111122,1111122,1111122' 
TCOON,ioos:station:TCOON:013:1,2015-07-05T23:18:00Z,27.4847,-97.3181,0.0,9.1,132.0,11.6,'1111122,1111122,1111122' 
TCOON,ioos:station:TCOON:013:1,2015-07-06T00:18:00Z,27.4847,-97.3181,0.0,7.7,134.0,9.9,'1111122,1111122,1111122' 
TCOON,ioos:station:TCOON:013:1,2015-07-06T01:12:00Z,27.4847,-97.3181,0.0,7.6,137.0,9.6,'1111122,1111122,1111122' 
TCOON,ioos:station:TCOON:013:1,2015-07-06T02:12:00Z,27.4847,-97.3181,0.0,5.8,138.0,7.9,'1111122,1111122,1111122' 
TCOON,ioos:station:TCOON:013:1,2015-07-06T03:12:00Z,27.4847,-97.3181,0.0,5.6,140.0,7.5,'1111122,1111122,1111122' 
TCOON,ioos:station:TCOON:013:1,2015-07-06T04:12:00Z,27.4847,-97.3181,0.0,6.7,144.0,9.2,'1111122,1111122,1111122' 
TCOON,ioos:station:TCOON:013:1,2015-07-06T05:12:00Z,27.4847,-97.3181,0.0,7.1,151.0,8.3,'1111122,1111122,1111122' 
TCOON,ioos:station:TCOON:013:1,2015-07-06T06:24:00Z,27.4847,-97.3181,0.0,7.5,153.0,9.0,'1111122,1111122,1111122' 
TCOON,ioos:station:TCOON:013:1,2015-07-06T07:30:00Z,27.4847,-97.3181,0.0,6.7,151.0,7.9,'1111122,1111122,1111122' 
TCOON,ioos:station:TCOON:013:1,2015-07-06T08:18:00Z,27.4847,-97.3181,0.0,6.2,152.0,8.0,'1111122,1111122,1111122' 
TCOON,ioos:station:TCOON:013:1,2015-07-06T09:12:00Z,27.4847,-97.3181,0.0,5.2,151.0,6.5,'1111122,1111122,1111122' 
TCOON,ioos:station:TCOON:013:1,2015-07-06T10:12:00Z,27.4847,-97.3181,0.0,4.6,152.0,5.3,'1111122,1111122,1111122' 
TCOON,ioos:station:TCOON:013:1,2015-07-06T11:12:00Z,27.4847,-97.3181,0.0,3.6,145.0,4.1,'1111122,1111122,1111122' 
TCOON,ioos:station:TCOON:013:1,2015-07-06T12:12:00Z,27.4847,-97.3181,0.0,3.6,148.0,4.6,'1111122,1111122,1111122' 
TCOON,ioos:station:TCOON:013:1,2015-07-06T13:12:00Z,27.4847,-97.3181,0.0,5.3,149.0,6.8,'1111122,1111122,1111122' 
TCOON,ioos:station:TCOON:013:1,2015-07-06T14:12:00Z,27.4847,-97.3181,0.0,7.6,147.0,9.6,'1111122,1111122,1111122' 
TCOON,ioos:station:TCOON:013:1,2015-07-06T15:12:00Z,27.4847,-97.3181,0.0,7.1,151.0,8.7,'1111122,1111122,1111122' 
TCOON,ioos:station:TCOON:013:1,2015-07-06T16:18:00Z,27.4847,-97.3181,0.0,9.3,139.0,12.0,'1111122,1111122,1111122' 
TCOON,ioos:station:TCOON:013:1,2015-07-06T17:12:00Z,27.4847,-97.3181,0.0,8.8,136.0,11.0,'1111122,1111122,1111122' 
TCOON,ioos:station:TCOON:013:1,2015-07-06T18:12:00Z,27.4847,-97.3181,0.0,8.7,141.0,11.0,'1111122,1111122,1111122' 
TCOON,ioos:station:TCOON:013:1,2015-07-06T19:12:00Z,27.4847,-97.3181,0.0,8.3,133.0,10.1,'1111122,1111122,1111122' 
TCOON,ioos:station:TCOON:013:1,2015-07-06T20:18:00Z,27.4847,-97.3181,0.0,7.9,134.0,10.5,'1111122,1111122,1111122' 
TCOON,ioos:station:TCOON:013:1,2015-07-06T21:18:00Z,27.4847,-97.3181,0.0,8.1,131.0,9.9,'1111122,1111122,1111122' 
TCOON,ioos:station:TCOON:013:1,2015-07-06T22:30:00Z,27.4847,-97.3181,0.0,8.3,133.0,10.0,'1111122,1111122,1111122' 
TCOON,ioos:station:TCOON:013:1,2015-07-06T23:18:00Z,27.4847,-97.3181,0.0,8.1,134.0,10.0,'1111122,1111122,1111122' 
TCOON,ioos:station:TCOON:013:1,2015-07-07T00:12:00Z,27.4847,-97.3181,0.0,8.1,134.0,9.8,'1111122,1111122,1111122' 
TCOON,ioos:station:TCOON:013:1,2015-07-07T01:12:00Z,27.4847,-97.3181,0.0,5.9,142.0,7.9,'1111122,1111122,1111122' 
TCOON,ioos:station:TCOON:013:1,2015-07-07T02:12:00Z,27.4847,-97.3181,0.0,6.4,142.0,7.8,'1111122,1111122,1111122' 
TCOON,ioos:station:TCOON:013:1,2015-07-07T03:12:00Z,27.4847,-97.3181,0.0,6.1,146.0,7.7,'1111122,1111122,1111122' 
TCOON,ioos:station:TCOON:013:1,2015-07-07T04:12:00Z,27.4847,-97.3181,0.0,6.3,151.0,7.7,'1111122,1111122,1111122' 
TCOON,ioos:station:TCOON:013:1,2015-07-07T05:12:00Z,27.4847,-97.3181,0.0,6.4,156.0,8.1,'1111122,1111122,1111122' 
TCOON,ioos:station:TCOON:013:1,2015-07-07T06:24:00Z,27.4847,-97.3181,0.0,5.4,142.0,6.5,'1111122,1111122,1111122' 
TCOON,ioos:station:TCOON:013:1,2015-07-07T07:18:00Z,27.4847,-97.3181,0.0,6.2,147.0,7.5,'1111122,1111122,1111122' 
TCOON,ioos:station:TCOON:013:1,2015-07-07T08:12:00Z,27.4847,-97.3181,0.0,6.1,149.0,7.7,'1111122,1111122,1111122' 
TCOON,ioos:station:TCOON:013:1,2015-07-07T09:24:00Z,27.4847,-97.3181,0.0,5.7,147.0,7.1,'1111122,1111122,1111122' 
TCOON,ioos:station:TCOON:013:1,2015-07-07T14:18:00Z,27.4847,-97.3181,0.0,8.1,144.0,9.9,'1111122,1111122,1111122' 
TCOON,ioos:station:TCOON:013:1,2015-07-07T15:12:00Z,27.4847,-97.3181,0.0,8.9,149.0,10.9,'1111122,1111122,1111122' 
TCOON,ioos:station:TCOON:013:1,2015-07-07T16:12:00Z,27.4847,-97.3181,0.0,8.7,145.0,11.5,'1111122,1111122,1111122' 
TCOON,ioos:station:TCOON:013:1,2015-07-07T17:18:00Z,27.4847,-97.3181,0.0,8.7,150.0,11.7,'1111122,1111122,1111122' 
TCOON,ioos:station:TCOON:013:1,2015-07-07T18:12:00Z,27.4847,-97.3181,0.0,9.4,137.0,13.1,'1111122,1111122,1111122' 
TCOON,ioos:station:TCOON:013:1,2015-07-07T19:12:00Z,27.4847,-97.3181,0.0,9.9,142.0,13.0,'1111122,1111122,1111122' 
TCOON,ioos:station:TCOON:013:1,2015-07-07T20:18:00Z,27.4847,-97.3181,0.0,8.5,134.0,11.1,'1111122,1111122,1111122' 
TCOON,ioos:station:TCOON:013:1,2015-07-07T21:12:00Z,27.4847,-97.3181,0.0,8.4,140.0,10.9,'1111122,1111122,1111122' 
TCOON,ioos:station:TCOON:013:1,2015-07-07T22:24:00Z,27.4847,-97.3181,0.0,8.9,131.0,11.6,'1111122,1111122,1111122' 
TCOON,ioos:station:TCOON:013:1,2015-07-07T23:12:00Z,27.4847,-97.3181,0.0,8.3,134.0,12.0,'1111122,1111122,1111122' 
TCOON,ioos:station:TCOON:013:1,2015-07-08T00:12:00Z,27.4847,-97.3181,0.0,7.4,132.0,9.6,'1111122,1111122,1111122' 
TCOON,ioos:station:TCOON:013:1,2015-07-08T01:18:00Z,27.4847,-97.3181,0.0,6.0,130.0,8.5,'1111122,1111122,1111122' 
TCOON,ioos:station:TCOON:013:1,2015-07-08T02:12:00Z,27.4847,-97.3181,0.0,5.7,140.0,7.6,'1111122,1111122,1111122' 
TCOON,ioos:station:TCOON:013:1,2015-07-08T03:12:00Z,27.4847,-97.3181,0.0,5.9,139.0,7.5,'1111122,1111122,1111122' 
TCOON,ioos:station:TCOON:013:1,2015-07-08T04:18:00Z,27.4847,-97.3181,0.0,5.7,142.0,7.6,'1111122,1111122,1111122' 
TCOON,ioos:station:TCOON:013:1,2015-07-08T05:12:00Z,27.4847,-97.3181,0.0,6.2,146.0,7.3,'1111122,1111122,1111122' 
TCOON,ioos:station:TCOON:013:1,2015-07-08T06:18:00Z,27.4847,-97.3181,0.0,6.8,146.0,9.2,'1111122,1111122,1111122' 
TCOON,ioos:station:TCOON:013:1,2015-07-08T07:18:00Z,27.4847,-97.3181,0.0,7.3,146.0,10.0,'1111122,1111122,1111122' 
TCOON,ioos:station:TCOON:013:1,2015-07-08T08:12:00Z,27.4847,-97.3181,0.0,7.7,151.0,9.5,'1111122,1111122,1111122' 
TCOON,ioos:station:TCOON:013:1,2015-07-08T09:12:00Z,27.4847,-97.3181,0.0,7.5,150.0,9.7,'1111122,1111122,1111122' 
TCOON,ioos:station:TCOON:013:1,2015-07-08T10:12:00Z,27.4847,-97.3181,0.0,6.3,152.0,8.1,'1111122,1111122,1111122' 
TCOON,ioos:station:TCOON:013:1,2015-07-08T11:18:00Z,27.4847,-97.3181,0.0,5.5,152.0,7.1,'1111122,1111122,1111122' 
TCOON,ioos:station:TCOON:013:1,2015-07-08T12:12:00Z,27.4847,-97.3181,0.0,5.9,154.0,7.1,'1111122,1111122,1111122' 
TCOON,ioos:station:TCOON:013:1,2015-07-08T13:18:00Z,27.4847,-97.3181,0.0,7.4,150.0,9.0,'1111122,1111122,1111122' 
TCOON,ioos:station:TCOON:013:1,2015-07-08T14:12:00Z,27.4847,-97.3181,0.0,7.3,148.0,8.9,'1111122,1111122,1111122' 
TCOON,ioos:station:TCOON:013:1,2015-07-08T15:18:00Z,27.4847,-97.3181,0.0,7.5,157.0,9.9,'1111122,1111122,1111122' 
TCOON,ioos:station:TCOON:013:1,2015-07-08T16:18:00Z,27.4847,-97.3181,0.0,7.5,151.0,9.9,'1111122,1111122,1111122' 
TCOON,ioos:station:TCOON:013:1,2015-07-08T17:18:00Z,27.4847,-97.3181,0.0,9.3,148.0,11.5,'1111122,1111122,1111122' 
TCOON,ioos:station:TCOON:013:1,2015-07-08T18:24:00Z,27.4847,-97.3181,0.0,9.6,141.0,12.4,'1111122,1111122,1111122' 
TCOON,ioos:station:TCOON:013:1,2015-07-08T19:18:00Z,27.4847,-97.3181,0.0,9.0,133.0,12.5,'1111122,1111122,1111122' 
TCOON,ioos:station:TCOON:013:1,2015-07-08T20:18:00Z,27.4847,-97.3181,0.0,8.1,133.0,11.3,'1111122,1111122,1111122' 
TCOON,ioos:station:TCOON:013:1,2015-07-08T21:18:00Z,27.4847,-97.3181,0.0,8.8,131.0,11.3,'1111122,1111122,1111122' 
TCOON,ioos:station:TCOON:013:1,2015-07-08T22:18:00Z,27.4847,-97.3181,0.0,9.8,125.0,11.1,'1111122,1111122,1111122' 
TCOON,ioos:station:TCOON:013:1,2015-07-08T23:18:00Z,27.4847,-97.3181,0.0,7.5,125.0,9.9,'1111122,1111122,1111122' 
TCOON,ioos:station:TCOON:013:1,2015-07-09T00:18:00Z,27.4847,-97.3181,0.0,7.4,128.0,9.2,'1111122,1111122,1111122' 
TCOON,ioos:station:TCOON:013:1,2015-07-09T01:12:00Z,27.4847,-97.3181,0.0,6.4,130.0,7.7,'1111122,1111122,1111122' 
TCOON,ioos:station:TCOON:013:1,2015-07-09T02:12:00Z,27.4847,-97.3181,0.0,5.5,136.0,7.5,'1111122,1111122,1111122' 
TCOON,ioos:station:TCOON:013:1,2015-07-09T03:12:00Z,27.4847,-97.3181,0.0,6.2,132.0,7.9,'1111122,1111122,1111122' 
TCOON,ioos:station:TCOON:013:1,2015-07-09T04:18:00Z,27.4847,-97.3181,0.0,5.7,134.0,7.1,'1111122,1111122,1111122' 
TCOON,ioos:station:TCOON:013:1,2015-07-09T05:12:00Z,27.4847,-97.3181,0.0,6.0,133.0,7.8,'1111122,1111122,1111122' 
TCOON,ioos:station:TCOON:013:1,2015-07-09T06:18:00Z,27.4847,-97.3181,0.0,5.7,147.0,7.4,'1111122,1111122,1111122' 
TCOON,ioos:station:TCOON:013:1,2015-07-09T07:24:00Z,27.4847,-97.3181,0.0,5.3,154.0,6.3,'1111122,1111122,1111122' 
TCOON,ioos:station:TCOON:013:1,2015-07-09T08:12:00Z,27.4847,-97.3181,0.0,5.4,155.0,6.8,'1111122,1111122,1111122' 
TCOON,ioos:station:TCOON:013:1,2015-07-09T09:12:00Z,27.4847,-97.3181,0.0,5.8,150.0,7.2,'1111122,1111122,1111122' 
TCOON,ioos:station:TCOON:013:1,2015-07-09T10:12:00Z,27.4847,-97.3181,0.0,5.2,161.0,6.5,'1111122,1111122,1111122' 
TCOON,ioos:station:TCOON:013:1,2015-07-09T11:12:00Z,27.4847,-97.3181,0.0,4.8,145.0,5.5,'1111122,1111122,1111122' 
TCOON,ioos:station:TCOON:013:1,2015-07-09T12:12:00Z,27.4847,-97.3181,0.0,4.9,143.0,5.9,'1111122,1111122,1111122' 
TCOON,ioos:station:TCOON:013:1,2015-07-09T13:48:00Z,27.4847,-97.3181,0.0,5.9,150.0,6.7,'1111122,1111122,1111122' 
TCOON,ioos:station:TCOON:013:1,2015-07-09T14:48:00Z,27.4847,-97.3181,0.0,7.2,149.0,9.8,'1111122,1111122,1111122' 
TCOON,ioos:station:TCOON:013:1,2015-07-09T15:18:00Z,27.4847,-97.3181,0.0,8.3,152.0,10.5,'1111122,1111122,1111122' 
TCOON,ioos:station:TCOON:013:1,2015-07-09T16:18:00Z,27.4847,-97.3181,0.0,6.7,143.0,9.9,'1111122,1111122,1111122' 
TCOON,ioos:station:TCOON:013:1,2015-07-09T17:18:00Z,27.4847,-97.3181,0.0,7.2,141.0,8.5,'1111122,1111122,1111122' 
TCOON,ioos:station:TCOON:013:1,2015-07-09T18:30:00Z,27.4847,-97.3181,0.0,7.7,132.0,9.5,'1111122,1111122,1111122' 
TCOON,ioos:station:TCOON:013:1,2015-07-09T19:24:00Z,27.4847,-97.3181,0.0,7.3,123.0,9.6,'1111122,1111122,1111122' 
TCOON,ioos:station:TCOON:013:1,2015-07-09T20:24:00Z,27.4847,-97.3181,0.0,7.5,134.0,9.6,'1111122,1111122,1111122' 
TCOON,ioos:station:TCOON:013:1,2015-07-09T21:18:00Z,27.4847,-97.3181,0.0,6.5,123.0,8.9,'1111122,1111122,1111122' 
TCOON,ioos:station:TCOON:013:1,2015-07-09T22:18:00Z,27.4847,-97.3181,0.0,7.9,115.0,9.4,'1111122,1111122,1111122' 
TCOON,ioos:station:TCOON:013:1,2015-07-09T23:12:00Z,27.4847,-97.3181,0.0,7.9,117.0,10.0,'1111122,1111122,1111122' 
TCOON,ioos:station:TCOON:013:1,2015-07-10T00:12:00Z,27.4847,-97.3181,0.0,7.9,125.0,10.0,'1111122,1111122,1111122' 
TCOON,ioos:station:TCOON:013:1,2015-07-10T01:18:00Z,27.4847,-97.3181,0.0,5.0,120.0,7.1,'1111122,1111122,1111122' 
TCOON,ioos:station:TCOON:013:1,2015-07-10T02:18:00Z,27.4847,-97.3181,0.0,6.2,114.0,7.4,'1111122,1111122,1111122' 
TCOON,ioos:station:TCOON:013:1,2015-07-10T03:12:00Z,27.4847,-97.3181,0.0,6.6,116.0,8.5,'1111122,1111122,1111122' 
TCOON,ioos:station:TCOON:013:1,2015-07-10T04:12:00Z,27.4847,-97.3181,0.0,6.4,126.0,8.7,'1111122,1111122,1111122' 
TCOON,ioos:station:TCOON:013:1,2015-07-10T05:12:00Z,27.4847,-97.3181,0.0,6.6,126.0,8.7,'1111122,1111122,1111122' 
TCOON,ioos:station:TCOON:013:1,2015-07-10T06:18:00Z,27.4847,-97.3181,0.0,5.5,142.0,7.6,'1111122,1111122,1111122' 
TCOON,ioos:station:TCOON:013:1,2015-07-10T07:24:00Z,27.4847,-97.3181,0.0,6.4,149.0,7.8,'1111122,1111122,1111122' 
TCOON,ioos:station:TCOON:013:1,2015-07-10T08:12:00Z,27.4847,-97.3181,0.0,6.4,150.0,8.1,'1111122,1111122,1111122' 
TCOON,ioos:station:TCOON:013:1,2015-07-10T09:12:00Z,27.4847,-97.3181,0.0,5.6,161.0,8.2,'1111122,1111122,1111122' 
TCOON,ioos:station:TCOON:013:1,2015-07-10T10:12:00Z,27.4847,-97.3181,0.0,3.7,161.0,5.0,'1111122,1111122,1111122' 
TCOON,ioos:station:TCOON:013:1,2015-07-10T11:12:00Z,27.4847,-97.3181,0.0,2.5,132.0,3.3,'1111122,1111122,1111122' 
TCOON,ioos:station:TCOON:013:1,2015-07-10T12:12:00Z,27.4847,-97.3181,0.0,2.1,141.0,2.4,'1111122,1111122,1111122' 